Location: Harmony
(28.2000°N, 81.1500°W)
Time: 15:39:32
(UTC-05:00)

Daily predictions for brighter satellites

Satellite Brightness Start Highest point End
(mag) Time Altitude Azimuth Time Altitude Azimuth Time Altitude Azimuth
BREEZE-M DEB (TANK) 3.3 17:51:45 10° NW 17:54:31 82° SW 18:02:33 10° SE
Meteor 1-28 Rocket 3.4 17:54:40 10° N 17:58:26 76° WNW 18:02:13 10° SSW
Cosmos 1455 Rocket 3.4 17:55:37 10° N 18:00:00 70° W 18:04:19 10° S
Cosmos 1697 Rocket 2.9 17:55:38 10° SSW 18:01:17 76° WNW 18:06:56 10° NNE
Cosmos 2266 Rocket 4.0 17:56:09 10° N 18:02:13 62° E 18:08:22 10° SSE
RESURS DK-1 3.0 17:58:38 10° S 18:02:26 37° ESE 18:06:15 10° NE
IRAS Rocket 4.2 17:57:19 10° SSE 18:02:48 87° ENE 18:08:18 10° NNW
USA 238 DEB 3.8 17:56:07 10° NNW 18:03:17 75° ENE 18:10:29 10° SSE
Delta 2 Rocket 4.0 17:57:34 10° WNW 18:03:18 79° NNE 18:08:36 10° ESE
USA 238 3.8 17:56:14 10° NNW 18:03:23 74° ENE 18:10:35 10° SSE
Cosmos 1515 3.8 17:59:50 10° S 18:03:31 53° E 18:07:12 10° NNE
USA 116 3.1 18:00:48 10° NNE 18:03:53 88° E 18:07:03 10° SSW
YAOGAN 1 3.1 18:00:26 10° SE 18:04:23 36° ENE 18:08:21 10° N
Cosmos 1544 Rocket 4.4 18:00:18 10° NNW 18:04:31 54° W 18:08:43 10° S
Cosmos 1184 Rocket 4.3 18:03:45 10° SE 18:06:05 18° E 18:08:24 10° NE
Hubble Space Telescope 1.9 18:02:56 10° W 18:06:53 44° SSW 18:10:50 10° SE
Cosmos 724 4.3 18:02:29 10° NNW 18:08:10 55° ENE 18:13:52 10° SE
ERS-2 3.3 18:12:03 10° ESE 18:14:53 21° ENE 18:17:43 10° NNE
Cosmos 1269 Rocket 4.1 18:10:08 10° N 18:15:21 57° ENE 18:20:31 10° SSE
EO 1 Del DPAF 3.5 18:12:38 10° NNE 18:16:19 47° E 18:19:59 10° S
MTI 3.7 18:13:53 10° NNE 18:17:07 75° E 18:20:21 10° S
SJ 16-02 3.7 18:16:49 10° WSW 18:20:18 23° WNW 18:23:49 10° NNW
Cosmos 1048 Rocket 4.0 18:15:27 10° NNW 18:20:50 84° ENE 18:26:10 10° SSE
CORIOLIS 4.3 18:17:57 10° S 18:23:22 79° WSW 18:28:46 10° NNW
CZ-4 R/B 1.4 18:19:49 10° S 18:23:39 78° WSW 18:27:35 10° NNW
Cosmos 2082 3.7 18:19:07 10° NNW 18:24:45 86° WSW 18:30:23 10° SSE
Landsat 4 4.1 18:24:02 10° N 18:27:49 66° WNW 18:31:34 10° SSW
Meteor 1-15 Rocket 4.3 18:22:11 10° N 18:28:05 68° E 18:33:52 10° SSE
COSMO-SKYMED 1 2.6 18:24:22 10° N 18:28:43 85° WNW 18:33:03 10° SSW
NOSS 3-2 (A) 4.1 18:23:10 10° NNW 18:30:58 66° ENE 18:39:14 10° SE
ASC 2 Rocket 4.2 18:30:19 10° SW 18:34:00 30° SSE 18:36:45 15° ESE
Meteor 2-11 Rocket 4.5 18:28:13 10° S 18:34:21 88° W 18:40:32 10° N
GOES 2 Rocket 3.2 18:30:36 10° W 18:34:50 74° S 18:38:47 15° ESE
Cosmos 2227 Rocket 3.2 18:29:22 10° NNW 18:34:50 51° WSW 18:40:15 10° S
NOSS 3-2 (C) 4.1 18:32:17 10° NNW 18:39:59 58° ENE 18:48:09 10° SE
ATLAS 3B R/B 3.3 18:34:22 10° NW 18:40:47 57° WSW 18:47:08 10° S
Cosmos 1025 Rocket 3.6 18:36:38 10° SSW 18:40:51 57° W 18:45:04 10° N
Cosmos 2360 Rocket 4.1 18:40:00 10° ESE 18:40:39 11° ESE 18:40:39 11° ESE
Cosmos 1980 Rocket 2.8 18:37:41 10° SSW 18:43:13 57° WNW 18:48:50 10° N
USA 215 3.2 18:39:31 10° SE 18:45:58 65° NE 18:52:26 10° NNW
Cosmos 1066 Rocket 4.1 18:43:27 10° S 18:48:59 74° E 18:54:26 10° NNE
ISS -1.0 18:46:34 10° WNW 18:49:05 21° SW 18:51:37 10° S
Cosmos 1553 Rocket 4.0 18:45:13 10° S 18:51:32 65° E 18:57:52 10° NNE
Shenzhou-11 Module 3.0 18:52:11 10° W 18:55:00 36° NNW 18:55:31 33° N
Cosmos 1417 Rocket 4.4 18:48:58 10° S 18:55:06 82° E 19:01:18 10° N
Okean 1-7 Rocket 4.3 18:51:09 10° SSW 18:55:26 53° W 18:59:45 10° N
GPS 2-04 Rocket1 2.5 18:54:19 10° SW 18:57:41 57° SSE 18:58:11 50° ESE
NOAA 12 4.0 18:54:45 10° SSE 19:00:01 79° ENE 19:05:16 10° N
Cosmos 2297 Rocket 3.9 18:55:53 10° NW 19:00:56 34° WSW 19:05:59 10° SSW
DELTA 2 R/B (1) 4.2 18:56:33 10° NW 19:01:42 37° NNE 19:02:55 33° NE
Cosmos 1745 Rocket 4.1 19:06:52 10° N 19:12:54 51° E 19:18:59 10° SSE
Tiangong 2 2.0 19:13:27 10° SW 19:15:48 46° SW 19:15:48 46° SW
Cosmos 2344 3.5 19:10:05 10° SSW 19:17:56 77° ESE 19:22:05 31° NE
CENTAUR R/B 3.4 19:12:03 10° NNW 19:19:48 45° ENE 19:22:17 37° E
DNEPR-1 R/B 4.3 19:14:13 10° NNW 19:19:49 67° ENE 19:26:41 10° SE
Cosmos 1606 Rocket 3.6 19:16:29 10° N 19:20:47 74° W 19:25:03 10° S
SWIFT 3.7 19:17:29 10° WSW 19:21:07 28° S 19:21:35 28° SSE
FENGYUN 3A 4.1 19:16:25 10° S 19:21:42 60° W 19:27:00 10° NNW
Cosmos 2227 4.1 19:18:11 10° N 19:23:50 59° ENE 19:24:25 56° E
Lacrosse 5 rocket 2.3 19:20:43 10° WSW 19:24:36 41° NW 19:25:21 37° NNW
Atlas Centaur 2 3.4 19:21:49 10° W 19:26:15 28° SSW 19:28:24 19° SSE
SL-16 R/B 2.2 19:21:40 10° SSW 19:27:19 77° WNW 19:29:37 37° N
ALOS 3.5 19:23:56 10° S 19:28:19 41° W 19:32:43 10° NNW
IUS-26 SRM-1 3.8 19:25:08 10° WSW 19:28:32 35° SSW 19:28:32 35° SSW
Cosmos 2322 Rocket 2.3 19:25:22 10° SSW 19:30:56 72° WNW 19:32:59 40° N
Cosmos 1238 Rocket 3.5 19:29:30 10° S 19:34:39 73° E 19:34:39 73° E
Gblst 52 Del rocket 4.3 19:37:08 10° NW 19:42:41 70° NNE 19:42:41 70° NNE
Cosmos 1726 Rocket 4.5 19:42:02 30° NW 19:43:41 45° W 19:47:47 10° SSW
Skynet4D Del rocket 4.0 19:38:03 10° W 19:43:58 56° SSW 19:44:26 54° S
Hubble Space Telescope 3.4 19:45:36 10° WSW 19:47:42 14° SSW 19:48:34 13° SSW
Thor Agena Rocket 4.4 19:49:31 33° NNW 19:51:23 47° WNW 19:56:25 10° SW
Cosmos 2251 Rocket 4.0 19:47:44 10° NNW 19:52:52 56° WSW 19:57:57 10° S
Cosmos 839 Rocket 4.0 19:52:02 10° SSW 19:57:48 81° SSW 19:57:48 81° SSW
Cosmos 2360 Rocket 3.8 20:19:55 10° SSW 20:22:30 28° SW 20:22:30 28° SW
CENTAUR R/B 4.3 21:03:04 10° NW 21:09:42 36° W 21:09:42 36° W
